Regional Weather Roundup
Issued by NWS

Home | Current Version | Previous Version | Text Only | Print | Product List | Glossary Off
Versions: 1 2 3 4 5 6 7 8 9 10 11 12 13 14 15 16 17 18 19 20 21 22 23 24 25 26 27 28 29 30 31 32 33 34 35 36 37 38 39 40 41 42 43 44 45 46 47 48 49 50

000
ASUS43 KFSD 310510
RWRSD

WEATHER ROUNDUP FOR SOUTH DAKOTA
NATIONAL WEATHER SERVICE SIOUX FALLS SD
1200 AM CDT FRI JUL 31 2015

NOTE: "FAIR" INDICATES FEW OR NO CLOUDS BELOW 12,000 FEET WITH NO
SIGNIFICANT WEATHER AND/OR OBSTRUCTIONS TO VISIBILITY.


SDZ001>005-009-010-012>017-310600-
NORTHWEST AND NORTH CENTRAL SOUTH DAKOTA

CITY           SKY/WX    TMP DP  RH WIND       PRES   REMARKS
BUFFALO          N/A     68  47  46 NE7       30.16S
FAITH            N/A     69  48  47 MISG      30.19R
MOBRIDGE       CLEAR     65  54  67 W3        30.13S
$$

SDZ012>016-024>037-041>051-057-063-072>074-310600-
SOUTHWEST AND SOUTH CENTRAL SOUTH DAKOTA

CITY           SKY/WX    TMP DP  RH WIND       PRES   REMARKS
RAPID CTY ARPT CLEAR     63  51  65 CALM      30.21R
PIERRE         CLEAR     65  57  75 CALM      30.14R
CUSTER         CLEAR     58  46  64 CALM      30.37S
ELLSWORTH AFB  CLEAR     66  49  54 W7        30.20S
PHILIP         CLEAR     67  52  58 E6        30.16R
PINE RIDGE     CLEAR     60  48  64 NE3       30.23S
SPEARFISH      FAIR      63  45  51 SW9       30.27S
WINNER         FAIR      73  53  49 S10       30.15S
$$

SDZ004>011-016>023-039-040-310600-
NORTHEAST SOUTH DAKOTA

CITY           SKY/WX    TMP DP  RH WIND       PRES   REMARKS
ABERDEEN       CLEAR     60  53  77 SW6       30.12S
WATERTOWN      CLEAR     65  58  78 W5        30.13R
BROOKINGS      CLOUDY    68  59  73 CALM      30.15S
SISSETON         N/A     65  54  67 NW9       30.07F
$$

SDZ017-020-022-023-036>040-048>070-310600-
SOUTHEAST SOUTH DAKOTA

CITY           SKY/WX    TMP DP  RH WIND       PRES   REMARKS
SIOUX FALLS    PTCLDY    69  61  75 W5        30.11S
HURON          PTCLDY    68  62  81 E3        30.12R
CHAMBERLAIN    CLEAR     66  58  75 CALM      30.14R
MITCHELL       CLEAR     66  62  87 NW3       30.12R
YANKTON        CLEAR     72  64  78 CALM      30.11S
$$

ABBREVIATIONS USED IN REMARKS
   TC - TEMPERATURE IN CELSIUS
  WCI - WIND CHILL INDEX
   HX - HEAT INDEX
  VSB - VISIBILITY



USA.gov is the U.S. government's official web portal to all federal, state and local government web resources and services.